Year,Month,Day,Hour,Minute,Value (Times are PST for windspeed in km/hr)
2008,02,06,00,00,1.20
2008,02,06,00,01,0.50
2008,02,06,00,02,0.00
2008,02,06,00,03,2.80
2008,02,06,00,04,3.50
2008,02,06,00,05,1.60
2008,02,06,00,06,0.10
2008,02,06,00,07,1.20
2008,02,06,00,08,0.50
2008,02,06,00,09,0.00
2008,02,06,00,10,1.40
2008,02,06,00,11,2.10
2008,02,06,00,12,3.00
2008,02,06,00,13,3.30
2008,02,06,00,14,0.30
2008,02,06,00,15,0.30
2008,02,06,00,16,0.10
2008,02,06,00,17,0.30
2008,02,06,00,18,0.20
2008,02,06,00,19,0.40
2008,02,06,00,20,1.20
2008,02,06,00,21,1.50
2008,02,06,00,22,1.80
2008,02,06,00,23,3.50
2008,02,06,00,24,2.30
2008,02,06,00,25,2.20
2008,02,06,00,26,1.10
2008,02,06,00,27,0.00
2008,02,06,00,28,0.50
2008,02,06,00,29,0.80
2008,02,06,00,30,0.10
2008,02,06,00,31,0.10
2008,02,06,00,32,0.40
2008,02,06,00,33,0.40
2008,02,06,00,34,0.00
2008,02,06,00,35,0.00
2008,02,06,00,36,0.20
2008,02,06,00,37,1.80
2008,02,06,00,38,0.80
2008,02,06,00,39,0.00
2008,02,06,00,40,0.70
2008,02,06,00,41,0.10
2008,02,06,00,42,0.10
2008,02,06,00,43,0.00
2008,02,06,00,44,0.60
2008,02,06,00,45,1.30
2008,02,06,00,46,0.20
2008,02,06,00,47,0.00
2008,02,06,00,48,0.00
2008,02,06,00,49,0.00
2008,02,06,00,50,0.00
2008,02,06,00,51,1.30
2008,02,06,00,52,0.40
2008,02,06,00,53,0.00
2008,02,06,00,54,0.00
2008,02,06,00,55,0.20
2008,02,06,00,56,0.00
2008,02,06,00,57,0.40
2008,02,06,00,58,0.00
2008,02,06,00,59,0.00
2008,02,06,01,00,0.00
2008,02,06,01,01,0.00
2008,02,06,01,02,0.00
2008,02,06,01,03,0.90
2008,02,06,01,04,4.70
2008,02,06,01,05,3.60
2008,02,06,01,06,2.70
2008,02,06,01,07,1.50
2008,02,06,01,08,0.10
2008,02,06,01,09,0.60
2008,02,06,01,10,3.20
2008,02,06,01,11,2.50
2008,02,06,01,12,4.10
2008,02,06,01,13,1.70
2008,02,06,01,14,2.40
2008,02,06,01,15,0.00
2008,02,06,01,16,2.10
2008,02,06,01,17,2.50
2008,02,06,01,18,4.90
2008,02,06,01,19,6.10
2008,02,06,01,20,3.40
2008,02,06,01,21,3.30
2008,02,06,01,22,2.20
2008,02,06,01,23,0.20
2008,02,06,01,24,0.00
2008,02,06,01,25,1.30
2008,02,06,01,26,2.50
2008,02,06,01,27,0.90
2008,02,06,01,28,0.40
2008,02,06,01,29,1.10
2008,02,06,01,30,3.50
2008,02,06,01,31,5.20
2008,02,06,01,32,3.10
2008,02,06,01,33,4.40
2008,02,06,01,34,4.70
2008,02,06,01,35,3.40
2008,02,06,01,36,4.70
2008,02,06,01,37,4.10
2008,02,06,01,38,3.00
2008,02,06,01,39,4.40
2008,02,06,01,40,2.60
2008,02,06,01,41,3.80
2008,02,06,01,42,2.30
2008,02,06,01,43,4.50
2008,02,06,01,44,4.00
2008,02,06,01,45,2.30
2008,02,06,01,46,3.20
2008,02,06,01,47,1.40
2008,02,06,01,48,1.90
2008,02,06,01,49,2.90
2008,02,06,01,50,2.60
2008,02,06,01,51,3.20
2008,02,06,01,52,4.70
2008,02,06,01,53,7.10
2008,02,06,01,54,6.50
2008,02,06,01,55,7.00
2008,02,06,01,56,7.20
2008,02,06,01,57,4.70
2008,02,06,01,58,6.10
2008,02,06,01,59,5.30
2008,02,06,02,00,5.80
2008,02,06,02,01,4.80
2008,02,06,02,02,3.90
2008,02,06,02,03,6.90
2008,02,06,02,04,6.50
2008,02,06,02,05,6.00
2008,02,06,02,06,5.50
2008,02,06,02,07,9.20
2008,02,06,02,08,5.30
2008,02,06,02,09,6.20
2008,02,06,02,10,6.30
2008,02,06,02,11,6.70
2008,02,06,02,12,8.90
2008,02,06,02,13,9.10
2008,02,06,02,14,7.00
2008,02,06,02,15,7.20
2008,02,06,02,16,10.90
2008,02,06,02,17,6.80
2008,02,06,02,18,6.10
2008,02,06,02,19,7.50
2008,02,06,02,20,7.20
2008,02,06,02,21,5.50
2008,02,06,02,22,6.40
2008,02,06,02,23,5.80
2008,02,06,02,24,5.90
2008,02,06,02,25,6.40
2008,02,06,02,26,6.90
2008,02,06,02,27,7.10
2008,02,06,02,28,8.00
2008,02,06,02,29,7.10
2008,02,06,02,30,5.50
2008,02,06,02,31,3.20
2008,02,06,02,32,4.20
2008,02,06,02,33,3.40
2008,02,06,02,34,4.20
2008,02,06,02,35,2.60
2008,02,06,02,36,4.10
2008,02,06,02,37,4.20
2008,02,06,02,38,3.70
2008,02,06,02,39,4.20
2008,02,06,02,40,5.00
2008,02,06,02,41,4.60
2008,02,06,02,42,5.70
2008,02,06,02,43,4.70
2008,02,06,02,44,2.10
2008,02,06,02,45,1.80
2008,02,06,02,46,0.80
2008,02,06,02,47,0.70
2008,02,06,02,48,1.90
2008,02,06,02,49,1.90
2008,02,06,02,50,0.40
2008,02,06,02,51,2.20
2008,02,06,02,52,2.00
2008,02,06,02,53,0.40
2008,02,06,02,54,0.40
2008,02,06,02,55,0.60
2008,02,06,02,56,0.80
2008,02,06,02,57,4.50
2008,02,06,02,58,2.70
2008,02,06,02,59,4.20
2008,02,06,03,00,4.70
2008,02,06,03,01,3.50
2008,02,06,03,02,2.00
2008,02,06,03,03,2.10
2008,02,06,03,04,2.90
2008,02,06,03,05,2.90
2008,02,06,03,06,3.90
2008,02,06,03,07,1.70
2008,02,06,03,08,0.60
2008,02,06,03,09,1.70
2008,02,06,03,10,2.20
2008,02,06,03,11,1.90
2008,02,06,03,12,0.10
2008,02,06,03,13,0.80
2008,02,06,03,14,0.30
2008,02,06,03,15,1.00
2008,02,06,03,16,2.60
2008,02,06,03,17,0.20
2008,02,06,03,18,0.10
2008,02,06,03,19,0.90
2008,02,06,03,20,2.40
2008,02,06,03,21,3.40
2008,02,06,03,22,2.40
2008,02,06,03,23,0.50
2008,02,06,03,24,2.30
2008,02,06,03,25,2.60
2008,02,06,03,26,0.50
2008,02,06,03,27,0.00
2008,02,06,03,28,0.00
2008,02,06,03,29,2.80
2008,02,06,03,30,3.20
2008,02,06,03,31,4.50
2008,02,06,03,32,4.30
2008,02,06,03,33,3.80
2008,02,06,03,34,3.30
2008,02,06,03,35,2.40
2008,02,06,03,36,1.60
2008,02,06,03,37,2.50
2008,02,06,03,38,3.60
2008,02,06,03,39,3.20
2008,02,06,03,40,1.60
2008,02,06,03,41,0.30
2008,02,06,03,42,0.00
2008,02,06,03,43,0.20
2008,02,06,03,44,0.50
2008,02,06,03,45,0.00
2008,02,06,03,46,0.00
2008,02,06,03,47,2.90
2008,02,06,03,48,2.50
2008,02,06,03,49,0.00
2008,02,06,03,50,2.50
2008,02,06,03,51,4.70
2008,02,06,03,52,3.20
2008,02,06,03,53,1.50
2008,02,06,03,54,2.20
2008,02,06,03,55,3.00
2008,02,06,03,56,1.60
2008,02,06,03,57,0.30
2008,02,06,03,58,0.10
2008,02,06,03,59,0.30
2008,02,06,04,00,0.00
2008,02,06,04,01,0.00
2008,02,06,04,02,0.20
2008,02,06,04,03,2.00
2008,02,06,04,04,1.60
2008,02,06,04,05,2.50
2008,02,06,04,06,2.40
2008,02,06,04,07,3.00
2008,02,06,04,08,3.00
2008,02,06,04,09,4.00
2008,02,06,04,10,2.90
2008,02,06,04,11,3.70
2008,02,06,04,12,3.10
2008,02,06,04,13,1.80
2008,02,06,04,14,0.40
2008,02,06,04,15,0.00
2008,02,06,04,16,0.00
2008,02,06,04,17,5.70
2008,02,06,04,18,5.50
2008,02,06,04,19,4.30
2008,02,06,04,20,2.30
2008,02,06,04,21,1.90
2008,02,06,04,22,2.60
2008,02,06,04,23,1.80
2008,02,06,04,24,0.40
2008,02,06,04,25,0.10
2008,02,06,04,26,0.20
2008,02,06,04,27,1.00
2008,02,06,04,28,2.00
2008,02,06,04,29,1.80
2008,02,06,04,30,0.90
2008,02,06,04,31,2.70
2008,02,06,04,32,3.70
2008,02,06,04,33,3.90
2008,02,06,04,34,3.60
2008,02,06,04,35,2.70
2008,02,06,04,36,1.60
2008,02,06,04,37,0.20
2008,02,06,04,38,0.60
2008,02,06,04,39,1.20
2008,02,06,04,40,1.70
2008,02,06,04,41,0.70
2008,02,06,04,42,0.00
2008,02,06,04,43,0.00
2008,02,06,04,44,0.00
2008,02,06,04,45,1.20
2008,02,06,04,46,3.80
2008,02,06,04,47,3.30
2008,02,06,04,48,0.50
2008,02,06,04,49,1.60
2008,02,06,04,50,1.00
2008,02,06,04,51,3.10
2008,02,06,04,52,1.10
2008,02,06,04,53,0.70
2008,02,06,04,54,0.00
2008,02,06,04,55,0.00
2008,02,06,04,56,0.00
2008,02,06,04,57,0.10
2008,02,06,04,58,1.60
2008,02,06,04,59,0.80
2008,02,06,05,00,1.60
2008,02,06,05,01,0.60
2008,02,06,05,02,0.20
2008,02,06,05,03,1.10
2008,02,06,05,04,1.70
2008,02,06,05,05,0.70
2008,02,06,05,06,0.60
2008,02,06,05,07,1.10
2008,02,06,05,08,0.50
2008,02,06,05,09,1.60
2008,02,06,05,10,1.40
2008,02,06,05,11,0.70
2008,02,06,05,12,1.70
2008,02,06,05,13,1.80
2008,02,06,05,14,3.20
2008,02,06,05,15,2.70
2008,02,06,05,16,2.50
2008,02,06,05,17,0.70
2008,02,06,05,18,0.10
2008,02,06,05,19,0.00
2008,02,06,05,20,0.30
2008,02,06,05,21,2.10
2008,02,06,05,22,1.70
2008,02,06,05,23,0.90
2008,02,06,05,24,0.90
2008,02,06,05,25,0.10
2008,02,06,05,26,0.40
2008,02,06,05,27,0.20
2008,02,06,05,28,0.80
2008,02,06,05,29,0.00
2008,02,06,05,30,2.30
2008,02,06,05,31,1.30
2008,02,06,05,32,0.30
2008,02,06,05,33,1.20
2008,02,06,05,34,5.20
2008,02,06,05,35,4.90
2008,02,06,05,36,5.20
2008,02,06,05,37,3.40
2008,02,06,05,38,0.30
2008,02,06,05,39,0.10
2008,02,06,05,40,0.50
2008,02,06,05,41,1.30
2008,02,06,05,42,3.10
2008,02,06,05,43,3.70
2008,02,06,05,44,5.80
2008,02,06,05,45,5.40
2008,02,06,05,46,5.40
2008,02,06,05,47,5.70
2008,02,06,05,48,5.40
2008,02,06,05,49,4.80
2008,02,06,05,50,2.90
2008,02,06,05,51,3.50
2008,02,06,05,52,2.10
2008,02,06,05,53,3.60
2008,02,06,05,54,4.10
2008,02,06,05,55,3.40
2008,02,06,05,56,2.30
2008,02,06,05,57,3.60
2008,02,06,05,58,3.80
2008,02,06,05,59,5.10
2008,02,06,06,00,4.60
2008,02,06,06,01,3.10
2008,02,06,06,02,1.00
2008,02,06,06,03,0.90
2008,02,06,06,04,0.30
2008,02,06,06,05,0.00
2008,02,06,06,06,0.50
2008,02,06,06,07,0.40
2008,02,06,06,08,0.40
2008,02,06,06,09,1.90
2008,02,06,06,10,3.80
2008,02,06,06,11,4.30
2008,02,06,06,12,3.70
2008,02,06,06,13,3.70
2008,02,06,06,14,1.30
2008,02,06,06,15,0.20
2008,02,06,06,16,0.00
2008,02,06,06,17,0.70
2008,02,06,06,18,2.80
2008,02,06,06,19,0.30
2008,02,06,06,20,0.00
2008,02,06,06,21,0.00
2008,02,06,06,22,0.30
2008,02,06,06,23,0.00
2008,02,06,06,24,0.00
2008,02,06,06,25,1.20
2008,02,06,06,26,0.60
2008,02,06,06,27,2.10
2008,02,06,06,28,1.80
2008,02,06,06,29,1.20
2008,02,06,06,30,0.80
2008,02,06,06,31,0.00
2008,02,06,06,32,0.10
2008,02,06,06,33,0.00
2008,02,06,06,34,0.00
2008,02,06,06,35,0.10
2008,02,06,06,36,1.60
2008,02,06,06,37,2.70
2008,02,06,06,38,1.60
2008,02,06,06,39,0.70
2008,02,06,06,40,1.70
2008,02,06,06,41,0.60
2008,02,06,06,42,1.00
2008,02,06,06,43,1.00
2008,02,06,06,44,0.10
2008,02,06,06,45,0.10
2008,02,06,06,46,0.00
2008,02,06,06,47,0.10
2008,02,06,06,48,2.10
2008,02,06,06,49,0.60
2008,02,06,06,50,0.20
2008,02,06,06,51,0.00
2008,02,06,06,52,0.90
2008,02,06,06,53,0.00
2008,02,06,06,54,0.00
2008,02,06,06,55,0.00
2008,02,06,06,56,0.00
2008,02,06,06,57,0.00
2008,02,06,06,58,0.00
2008,02,06,06,59,0.00
2008,02,06,07,00,0.00
2008,02,06,07,01,0.00
2008,02,06,07,02,0.00
2008,02,06,07,03,0.80
2008,02,06,07,04,1.10
2008,02,06,07,05,2.30
2008,02,06,07,06,1.90
2008,02,06,07,07,0.60
2008,02,06,07,08,0.20
2008,02,06,07,09,1.20
2008,02,06,07,10,0.90
2008,02,06,07,11,0.30
2008,02,06,07,12,0.20
2008,02,06,07,13,0.00
2008,02,06,07,14,0.90
2008,02,06,07,15,1.60
2008,02,06,07,16,0.70
2008,02,06,07,17,0.00
2008,02,06,07,18,0.00
2008,02,06,07,19,0.90
2008,02,06,07,20,0.50
2008,02,06,07,21,0.00
2008,02,06,07,22,0.70
2008,02,06,07,23,0.00
2008,02,06,07,24,0.00
2008,02,06,07,25,0.40
2008,02,06,07,26,0.60
2008,02,06,07,27,0.00
2008,02,06,07,28,0.00
2008,02,06,07,29,0.20
2008,02,06,07,30,1.30
2008,02,06,07,31,0.10
2008,02,06,07,32,1.50
2008,02,06,07,33,0.30
2008,02,06,07,34,0.00
2008,02,06,07,35,0.00
2008,02,06,07,36,0.00
2008,02,06,07,37,0.00
2008,02,06,07,38,0.00
2008,02,06,07,39,0.00
2008,02,06,07,40,0.00
2008,02,06,07,41,0.00
2008,02,06,07,42,0.00
2008,02,06,07,43,1.40
2008,02,06,07,44,3.00
2008,02,06,07,45,1.90
2008,02,06,07,46,3.60
2008,02,06,07,47,2.30
2008,02,06,07,48,1.90
2008,02,06,07,49,2.10
2008,02,06,07,50,1.80
2008,02,06,07,51,1.90
2008,02,06,07,52,0.60
2008,02,06,07,53,0.00
2008,02,06,07,54,0.00
2008,02,06,07,55,0.40
2008,02,06,07,56,4.00
2008,02,06,07,57,3.00
2008,02,06,07,58,3.20
2008,02,06,07,59,2.60
2008,02,06,08,00,3.60
2008,02,06,08,01,2.90
2008,02,06,08,02,1.80
2008,02,06,08,03,0.20
2008,02,06,08,04,0.00
2008,02,06,08,05,0.00
2008,02,06,08,06,0.10
2008,02,06,08,07,0.00
2008,02,06,08,08,0.00
2008,02,06,08,09,0.00
2008,02,06,08,10,0.00
2008,02,06,08,11,0.00
2008,02,06,08,12,0.00
2008,02,06,08,13,0.00
2008,02,06,08,14,0.00
2008,02,06,08,15,0.00
2008,02,06,08,16,0.00
2008,02,06,08,17,0.00
2008,02,06,08,18,0.00
2008,02,06,08,19,0.00
2008,02,06,08,20,0.00
2008,02,06,08,21,0.00
2008,02,06,08,22,0.00
2008,02,06,08,23,0.00
2008,02,06,08,24,0.00
2008,02,06,08,25,0.00
2008,02,06,08,26,0.00
2008,02,06,08,27,0.00
2008,02,06,08,28,0.00
2008,02,06,08,29,0.00
2008,02,06,08,30,0.00
2008,02,06,08,31,0.00
2008,02,06,08,32,0.00
2008,02,06,08,33,0.00
2008,02,06,08,34,0.00
2008,02,06,08,35,0.00
2008,02,06,08,36,0.00
2008,02,06,08,37,0.00
2008,02,06,08,38,0.00
2008,02,06,08,39,0.00
2008,02,06,08,40,0.00
2008,02,06,08,41,0.00
2008,02,06,08,42,0.00
2008,02,06,08,43,0.00
2008,02,06,08,44,0.00
2008,02,06,08,45,0.10
2008,02,06,08,46,2.90
2008,02,06,08,47,0.80
2008,02,06,08,48,0.00
2008,02,06,08,49,0.00
2008,02,06,08,50,0.10
2008,02,06,08,51,0.40
2008,02,06,08,52,0.00
2008,02,06,08,53,0.00
2008,02,06,08,54,0.00
2008,02,06,08,55,0.10
2008,02,06,08,56,0.80
2008,02,06,08,57,0.10
2008,02,06,08,58,3.40
2008,02,06,08,59,1.80
2008,02,06,09,00,1.60
2008,02,06,09,01,2.10
2008,02,06,09,02,2.70
2008,02,06,09,03,0.10
2008,02,06,09,04,0.00
2008,02,06,09,05,0.00
2008,02,06,09,06,0.00
2008,02,06,09,07,0.40
2008,02,06,09,08,0.40
2008,02,06,09,09,3.90
2008,02,06,09,10,2.10
2008,02,06,09,11,1.40
2008,02,06,09,12,4.00
2008,02,06,09,13,3.40
2008,02,06,09,14,3.70
2008,02,06,09,15,8.80
2008,02,06,09,16,6.10
2008,02,06,09,17,3.70
2008,02,06,09,18,4.70
2008,02,06,09,19,4.90
2008,02,06,09,20,5.20
2008,02,06,09,21,5.30
2008,02,06,09,22,6.80
2008,02,06,09,23,8.00
2008,02,06,09,24,6.60
2008,02,06,09,25,8.10
2008,02,06,09,26,8.90
2008,02,06,09,27,6.30
2008,02,06,09,28,2.90
2008,02,06,09,29,3.10
2008,02,06,09,30,2.10
2008,02,06,09,31,1.10
2008,02,06,09,32,2.00
2008,02,06,09,33,0.10
2008,02,06,09,34,3.00
2008,02,06,09,35,3.00
2008,02,06,09,36,2.80
2008,02,06,09,37,2.10
2008,02,06,09,38,0.40
2008,02,06,09,39,0.40
2008,02,06,09,40,0.90
2008,02,06,09,41,0.50
2008,02,06,09,42,1.30
2008,02,06,09,43,0.70
2008,02,06,09,44,0.10
2008,02,06,09,45,0.00
2008,02,06,09,46,0.00
2008,02,06,09,47,0.00
2008,02,06,09,48,0.00
2008,02,06,09,49,0.00
2008,02,06,09,50,1.00
2008,02,06,09,51,0.20
2008,02,06,09,52,0.10
2008,02,06,09,53,0.00
2008,02,06,09,54,0.60
2008,02,06,09,55,1.00
2008,02,06,09,56,0.00
2008,02,06,09,57,0.00
2008,02,06,09,58,0.00
2008,02,06,09,59,0.00
2008,02,06,10,00,0.00
2008,02,06,10,01,0.00
2008,02,06,10,02,0.00
2008,02,06,10,03,0.00
2008,02,06,10,04,0.00
2008,02,06,10,05,0.10
2008,02,06,10,06,1.90
2008,02,06,10,07,0.90
2008,02,06,10,08,2.10
2008,02,06,10,09,2.10
2008,02,06,10,10,2.40
2008,02,06,10,11,1.30
2008,02,06,10,12,1.50
2008,02,06,10,13,1.20
2008,02,06,10,14,0.90
2008,02,06,10,15,0.00
2008,02,06,10,16,0.00
2008,02,06,10,17,0.30
2008,02,06,10,18,1.30
2008,02,06,10,19,0.00
2008,02,06,10,20,0.00
2008,02,06,10,21,0.00
2008,02,06,10,22,0.00
2008,02,06,10,23,0.00
2008,02,06,10,24,0.00
2008,02,06,10,25,0.00
2008,02,06,10,26,0.00
2008,02,06,10,27,0.00
2008,02,06,10,28,0.00
2008,02,06,10,29,0.00
2008,02,06,10,30,0.00
2008,02,06,10,31,0.00
2008,02,06,10,32,0.00
2008,02,06,10,33,0.00
2008,02,06,10,34,0.00
2008,02,06,10,35,0.00
2008,02,06,10,36,0.00
2008,02,06,10,37,0.00
2008,02,06,10,38,0.00
2008,02,06,10,39,0.00
2008,02,06,10,40,0.00
2008,02,06,10,41,0.00
2008,02,06,10,42,0.00
2008,02,06,10,43,0.00
2008,02,06,10,44,0.10
2008,02,06,10,45,0.00
2008,02,06,10,46,0.00
2008,02,06,10,47,0.00
2008,02,06,10,48,0.00
2008,02,06,10,49,0.00
2008,02,06,10,50,0.00
2008,02,06,10,51,0.00
2008,02,06,10,52,0.00
2008,02,06,10,53,0.00
2008,02,06,10,54,0.00
2008,02,06,10,55,0.20
2008,02,06,10,56,0.00
2008,02,06,10,57,0.00
2008,02,06,10,58,0.00
2008,02,06,10,59,0.00
2008,02,06,11,00,0.00
2008,02,06,11,01,0.00
2008,02,06,11,02,0.00
2008,02,06,11,03,0.00
2008,02,06,11,04,0.00
2008,02,06,11,05,0.00
2008,02,06,11,06,0.00
2008,02,06,11,07,0.00
2008,02,06,11,08,0.00
2008,02,06,11,09,0.20
2008,02,06,11,10,0.50
2008,02,06,11,11,0.40
2008,02,06,11,12,0.00
2008,02,06,11,13,0.00
2008,02,06,11,14,0.10
2008,02,06,11,15,0.00
2008,02,06,11,16,0.00
2008,02,06,11,17,0.10
2008,02,06,11,18,0.70
2008,02,06,11,19,1.60
2008,02,06,11,20,2.70
2008,02,06,11,21,2.40
2008,02,06,11,22,2.30
2008,02,06,11,23,1.90
2008,02,06,11,24,0.40
2008,02,06,11,25,0.90
2008,02,06,11,26,1.90
2008,02,06,11,27,2.10
2008,02,06,11,28,3.20
2008,02,06,11,29,3.90
2008,02,06,11,30,2.60
2008,02,06,11,31,3.50
2008,02,06,11,32,2.20
2008,02,06,11,33,1.80
2008,02,06,11,34,2.40
2008,02,06,11,35,2.90
2008,02,06,11,36,2.20
2008,02,06,11,37,2.30
2008,02,06,11,38,3.50
2008,02,06,11,39,2.70
2008,02,06,11,40,1.90
2008,02,06,11,41,1.40
2008,02,06,11,42,2.60
2008,02,06,11,43,10.90
2008,02,06,11,44,8.80
2008,02,06,11,45,4.70
2008,02,06,11,46,0.70
2008,02,06,11,47,0.50
2008,02,06,11,48,0.10
2008,02,06,11,49,1.40
2008,02,06,11,50,0.20
2008,02,06,11,51,1.70
2008,02,06,11,52,2.80
2008,02,06,11,53,2.70
2008,02,06,11,54,1.30
2008,02,06,11,55,4.10
2008,02,06,11,56,0.10
2008,02,06,11,57,0.10
2008,02,06,11,58,0.50
2008,02,06,11,59,2.90
2008,02,06,12,00,1.80
2008,02,06,12,01,2.40
2008,02,06,12,02,2.10
2008,02,06,12,03,1.10
2008,02,06,12,04,4.00
2008,02,06,12,05,4.60
2008,02,06,12,06,5.50
2008,02,06,12,07,4.20
2008,02,06,12,08,1.90
2008,02,06,12,09,1.90
2008,02,06,12,10,0.20
2008,02,06,12,11,0.70
2008,02,06,12,12,1.00
2008,02,06,12,13,2.10
2008,02,06,12,14,0.50
2008,02,06,12,15,1.60
2008,02,06,12,16,0.00
2008,02,06,12,17,0.10
2008,02,06,12,18,0.50
2008,02,06,12,19,2.20
2008,02,06,12,20,3.40
2008,02,06,12,21,0.10
2008,02,06,12,22,0.00
2008,02,06,12,23,2.70
2008,02,06,12,24,2.40
2008,02,06,12,25,1.60
2008,02,06,12,26,0.90
2008,02,06,12,27,1.30
2008,02,06,12,28,3.10
2008,02,06,12,29,3.70
2008,02,06,12,30,3.10
2008,02,06,12,31,2.00
2008,02,06,12,32,2.00
2008,02,06,12,33,2.50
2008,02,06,12,34,3.80
2008,02,06,12,35,2.10
2008,02,06,12,36,0.60
2008,02,06,12,37,1.30
2008,02,06,12,38,0.60
2008,02,06,12,39,2.70
2008,02,06,12,40,1.30
2008,02,06,12,41,0.40
2008,02,06,12,42,1.90
2008,02,06,12,43,2.70
2008,02,06,12,44,5.00
2008,02,06,12,45,2.60
2008,02,06,12,46,2.60
2008,02,06,12,47,1.20
2008,02,06,12,48,1.10
2008,02,06,12,49,0.00
2008,02,06,12,50,0.00
2008,02,06,12,51,1.80
2008,02,06,12,52,0.70
2008,02,06,12,53,1.70
2008,02,06,12,54,1.10
2008,02,06,12,55,0.00
2008,02,06,12,56,1.30
2008,02,06,12,57,1.90
2008,02,06,12,58,2.50
2008,02,06,12,59,3.60
2008,02,06,13,00,2.20
2008,02,06,13,01,1.40
2008,02,06,13,02,0.40
2008,02,06,13,03,3.50
2008,02,06,13,04,0.30
2008,02,06,13,05,4.30
2008,02,06,13,06,3.80
2008,02,06,13,07,5.20
2008,02,06,13,08,4.90
2008,02,06,13,09,2.40
2008,02,06,13,10,4.10
2008,02,06,13,11,4.70
2008,02,06,13,12,5.40
2008,02,06,13,13,6.90
2008,02,06,13,14,2.10
2008,02,06,13,15,3.40
2008,02,06,13,16,6.20
2008,02,06,13,17,1.70
2008,02,06,13,18,5.60
2008,02,06,13,19,2.50
2008,02,06,13,20,0.40
2008,02,06,13,21,4.00
2008,02,06,13,22,5.60
2008,02,06,13,23,4.20
2008,02,06,13,24,3.50
2008,02,06,13,25,2.70
2008,02,06,13,26,4.10
2008,02,06,13,27,2.60
2008,02,06,13,28,5.40
2008,02,06,13,29,5.70
2008,02,06,13,30,3.60
2008,02,06,13,31,4.40
2008,02,06,13,32,4.30
2008,02,06,13,33,6.00
2008,02,06,13,34,3.30
2008,02,06,13,35,6.30
2008,02,06,13,36,6.50
2008,02,06,13,37,2.40
2008,02,06,13,38,0.80
2008,02,06,13,39,5.30
2008,02,06,13,40,2.20
2008,02,06,13,41,2.90
2008,02,06,13,42,3.80
2008,02,06,13,43,2.70
2008,02,06,13,44,2.70
2008,02,06,13,45,4.90
2008,02,06,13,46,1.40
2008,02,06,13,47,4.00
2008,02,06,13,48,4.80
2008,02,06,13,49,0.40
2008,02,06,13,50,0.20
2008,02,06,13,51,3.20
2008,02,06,13,52,7.20
2008,02,06,13,53,2.00
2008,02,06,13,54,4.50
2008,02,06,13,55,2.20
2008,02,06,13,56,4.00
2008,02,06,13,57,2.50
2008,02,06,13,58,0.30
2008,02,06,13,59,2.10
2008,02,06,14,00,1.30
2008,02,06,14,01,0.60
2008,02,06,14,02,1.30
2008,02,06,14,03,2.40
2008,02,06,14,04,0.20
2008,02,06,14,05,2.30
2008,02,06,14,06,4.70
2008,02,06,14,07,1.30
2008,02,06,14,08,2.00
2008,02,06,14,09,1.00
2008,02,06,14,10,1.60
2008,02,06,14,11,3.00
2008,02,06,14,12,2.00
2008,02,06,14,13,1.00
2008,02,06,14,14,1.30
2008,02,06,14,15,2.20
2008,02,06,14,16,4.00
2008,02,06,14,17,2.90
2008,02,06,14,18,2.60
2008,02,06,14,19,2.50
2008,02,06,14,20,1.10
2008,02,06,14,21,1.00
2008,02,06,14,22,1.10
2008,02,06,14,23,0.40
2008,02,06,14,24,1.90
2008,02,06,14,25,2.00
2008,02,06,14,26,5.40
2008,02,06,14,27,3.90
2008,02,06,14,28,3.30
2008,02,06,14,29,1.20
2008,02,06,14,30,2.50
2008,02,06,14,31,3.40
2008,02,06,14,32,3.50
2008,02,06,14,33,1.50
2008,02,06,14,34,1.30
2008,02,06,14,35,5.30
2008,02,06,14,36,3.50
2008,02,06,14,37,3.20
2008,02,06,14,38,4.10
2008,02,06,14,39,2.00
2008,02,06,14,40,3.80
2008,02,06,14,41,2.10
2008,02,06,14,42,1.30
2008,02,06,14,43,1.90
2008,02,06,14,44,0.30
2008,02,06,14,45,0.30
2008,02,06,14,46,1.20
2008,02,06,14,47,2.30
2008,02,06,14,48,2.30
2008,02,06,14,49,2.70
2008,02,06,14,50,3.60
2008,02,06,14,51,2.90
2008,02,06,14,52,2.70
2008,02,06,14,53,0.80
2008,02,06,14,54,0.80
2008,02,06,14,55,0.40
2008,02,06,14,56,1.00
2008,02,06,14,57,2.50
2008,02,06,14,58,0.90
2008,02,06,14,59,1.30
2008,02,06,15,00,1.60
2008,02,06,15,01,0.60
2008,02,06,15,02,1.30
2008,02,06,15,03,0.90
2008,02,06,15,04,1.30
2008,02,06,15,05,5.50
2008,02,06,15,06,4.70
2008,02,06,15,07,2.90
2008,02,06,15,08,2.40
2008,02,06,15,09,3.00
2008,02,06,15,10,3.40
2008,02,06,15,11,1.10
2008,02,06,15,12,0.80
2008,02,06,15,13,2.50
2008,02,06,15,14,0.90
2008,02,06,15,15,3.50
2008,02,06,15,16,6.30
2008,02,06,15,17,2.30
2008,02,06,15,18,3.80
2008,02,06,15,19,0.90
2008,02,06,15,20,1.90
2008,02,06,15,21,6.70
2008,02,06,15,22,6.80
2008,02,06,15,23,4.60
2008,02,06,15,24,1.90
2008,02,06,15,25,7.20
2008,02,06,15,26,4.90
2008,02,06,15,27,4.70
2008,02,06,15,28,3.70
2008,02,06,15,29,7.00
2008,02,06,15,30,2.60
2008,02,06,15,31,1.70
2008,02,06,15,32,1.80
2008,02,06,15,33,4.20
2008,02,06,15,34,5.80
2008,02,06,15,35,4.30
2008,02,06,15,36,3.50
2008,02,06,15,37,1.20
2008,02,06,15,38,1.30
2008,02,06,15,39,1.00
2008,02,06,15,40,1.80
2008,02,06,15,41,1.20
2008,02,06,15,42,7.00
2008,02,06,15,43,6.60
2008,02,06,15,44,3.00
2008,02,06,15,45,6.10
2008,02,06,15,46,6.30
2008,02,06,15,47,3.40
2008,02,06,15,48,9.10
2008,02,06,15,49,5.00
2008,02,06,15,50,4.60
2008,02,06,15,51,3.90
2008,02,06,15,52,6.00
2008,02,06,15,53,4.20
2008,02,06,15,54,4.40
2008,02,06,15,55,4.40
2008,02,06,15,56,5.50
2008,02,06,15,57,3.20
2008,02,06,15,58,3.80
2008,02,06,15,59,5.30
2008,02,06,16,00,5.90
2008,02,06,16,01,6.40
2008,02,06,16,02,3.10
2008,02,06,16,03,3.00
2008,02,06,16,04,4.10
2008,02,06,16,05,4.60
2008,02,06,16,06,1.60
2008,02,06,16,07,5.30
2008,02,06,16,08,0.40
2008,02,06,16,09,2.10
2008,02,06,16,10,4.10
2008,02,06,16,11,3.90
2008,02,06,16,12,4.50
2008,02,06,16,13,0.30
2008,02,06,16,14,3.20
2008,02,06,16,15,2.30
2008,02,06,16,16,5.10
2008,02,06,16,17,1.20
2008,02,06,16,18,2.10
2008,02,06,16,19,1.70
2008,02,06,16,20,1.30
2008,02,06,16,21,4.20
2008,02,06,16,22,4.90
2008,02,06,16,23,1.10
2008,02,06,16,24,1.60
2008,02,06,16,25,2.90
2008,02,06,16,26,1.00
2008,02,06,16,27,3.60
2008,02,06,16,28,4.80
2008,02,06,16,29,1.90
2008,02,06,16,30,3.50
2008,02,06,16,31,3.20
2008,02,06,16,32,0.80
2008,02,06,16,33,2.40
2008,02,06,16,34,3.80
2008,02,06,16,35,1.30
2008,02,06,16,36,2.00
2008,02,06,16,37,2.70
2008,02,06,16,38,0.60
2008,02,06,16,39,1.10
2008,02,06,16,40,5.00
2008,02,06,16,41,2.90
2008,02,06,16,42,2.70
2008,02,06,16,43,0.50
2008,02,06,16,44,1.80
2008,02,06,16,45,3.80
2008,02,06,16,46,2.80
2008,02,06,16,47,7.00
2008,02,06,16,48,5.70
2008,02,06,16,49,4.80
2008,02,06,16,50,1.40
2008,02,06,16,51,3.10
2008,02,06,16,52,1.30
2008,02,06,16,53,2.10
2008,02,06,16,54,7.60
2008,02,06,16,55,5.30
2008,02,06,16,56,3.10
2008,02,06,16,57,4.90
2008,02,06,16,58,6.20
2008,02,06,16,59,6.30
2008,02,06,17,00,5.20
2008,02,06,17,01,3.30
2008,02,06,17,02,4.80
2008,02,06,17,03,1.50
2008,02,06,17,04,0.80
2008,02,06,17,05,5.30
2008,02,06,17,06,5.10
2008,02,06,17,07,4.10
2008,02,06,17,08,7.50
2008,02,06,17,09,3.70
2008,02,06,17,10,1.50
2008,02,06,17,11,2.70
2008,02,06,17,12,6.40
2008,02,06,17,13,1.70
2008,02,06,17,14,5.20
2008,02,06,17,15,5.60
2008,02,06,17,16,6.20
2008,02,06,17,17,3.40
2008,02,06,17,18,7.30
2008,02,06,17,19,6.40
2008,02,06,17,20,6.20
2008,02,06,17,21,2.90
2008,02,06,17,22,1.40
2008,02,06,17,23,5.80
2008,02,06,17,24,4.20
2008,02,06,17,25,4.80
2008,02,06,17,26,8.40
2008,02,06,17,27,1.20
2008,02,06,17,28,1.80
2008,02,06,17,29,11.30
2008,02,06,17,30,5.30
2008,02,06,17,31,4.90
2008,02,06,17,32,3.40
2008,02,06,17,33,4.40
2008,02,06,17,34,3.70
2008,02,06,17,35,3.90
2008,02,06,17,36,8.70
2008,02,06,17,37,2.20
2008,02,06,17,38,9.60
2008,02,06,17,39,1.00
2008,02,06,17,40,5.10
2008,02,06,17,41,7.40
2008,02,06,17,42,8.40
2008,02,06,17,43,5.90
2008,02,06,17,44,8.10
2008,02,06,17,45,3.90
2008,02,06,17,46,5.40
2008,02,06,17,47,5.20
2008,02,06,17,48,9.80
2008,02,06,17,49,4.60
2008,02,06,17,50,4.50
2008,02,06,17,51,8.50
2008,02,06,17,52,3.10
2008,02,06,17,53,6.40
2008,02,06,17,54,5.70
2008,02,06,17,55,7.20
2008,02,06,17,56,5.40
2008,02,06,17,57,7.40
2008,02,06,17,58,6.40
2008,02,06,17,59,6.00
2008,02,06,18,00,6.10
2008,02,06,18,01,4.30
2008,02,06,18,02,3.30
2008,02,06,18,03,10.60
2008,02,06,18,04,3.80
2008,02,06,18,05,5.50
2008,02,06,18,06,7.80